#timestamp,LO_Frequency,Hit,StdDev 
1679126415.0,286046971.4,N
1679126415.9,286046971.4,N
1679126435.8,286046962.5,N
1679126455.6,286046956.8,N
1679126475.4,286046951.7,N
1679126495.3,286046950.1,N
1679126515.1,286046949.6,N
1679126535.8,286046946.7,N
1679126555.7,286046942.9,N
1679126575.5,286046940.5,N
1679126595.4,286046938.0,N
1679126615.2,286046932.5,N
1679126635.0,286046934.0,N
1679126635.9,286046934.0,N
1679126655.8,286046931.3,N
1679126675.6,286046931.6,N
1679126695.4,286046930.8,N
1679126715.3,286046927.7,N
1679126735.1,286046927.5,N
1679126755.9,286046927.4,N
1679126775.7,286046926.2,N
1679126795.5,286046926.8,N
1679126815.4,286046924.1,N
1679126835.2,286046925.8,N
1679126855.0,286046922.2,N
1679126855.9,286046922.2,Y
1679126875.8,286046974.0,P
1679126895.6,286046973.8,N
1679126915.5,286046980.4,N
1679126935.3,286046975.4,N
1679126955.1,286046977.2,N
1679126975.9,286046978.5,N
1679126995.7,286046980.9,N
1679127015.5,286046976.7,N
1679127035.4,286046975.0,N
1679127055.2,286046973.5,Y
1679127075.1,286046998.0,P
1679127076.0,286046998.0,N
1679127095.8,286046996.8,N
1679127115.6,286047003.3,N
1679127135.5,286046997.0,N
1679127155.3,286046997.3,N
1679127175.1,286046997.1,N
1679127195.9,286046997.2,N
1679127215.7,286047000.5,N
1679127235.6,286047003.1,N
1679127255.4,286047006.2,N
1679127275.2,286047005.6,N
1679127295.1,286046997.0,N
1679127296.0,286046997.0,N
1679127315.8,286046994.6,N
1679127335.6,286046993.2,N
1679127355.5,286046995.0,N
1679127375.3,286046990.7,N
1679127395.2,286046987.1,N
1679127415.9,286046993.0,N
1679127435.7,286047001.0,N
1679127455.6,286046999.6,N
1679127475.4,286046993.0,N
1679127495.2,286046989.3,N
1679127515.1,286046986.7,N
1679127516.0,286046986.7,N
1679127535.8,286046983.6,N
1679127555.7,286046980.9,N
1679127575.5,286046979.8,N
1679127595.3,286046979.0,N
1679127615.2,286046987.1,N
1679127635.0,286046983.0,N
1679127635.9,286046983.0,N
1679127655.7,286046981.6,N
1679127675.6,286046978.0,N
1679127695.4,286046979.5,N
1679127715.3,286046976.6,N
1679127735.1,286046975.4,N
1679127736.0,286046975.4,N
1679127755.8,286046973.5,N
1679127775.7,286046971.8,Y
1679127795.5,286046980.6,P
1679127815.4,286046980.3,P
1679127835.2,286046980.2,P
1679127855.0,286046977.6,Y
1679127855.9,286046977.6,P
1679127875.8,286046993.8,N
1679127895.6,286046998.6,N
1679127915.4,286047002.2,N
1679127935.3,286046998.5,N
1679127955.1,286046994.2,N
1679127975.9,286046990.4,N
1679127995.7,286046988.9,N
1679128015.5,286046989.5,N
1679128035.4,286046993.7,N
1679128055.2,286047001.2,N
1679128075.0,286046998.1,N
1679128075.9,286046998.1,N
1679128095.8,286046992.0,N
1679128115.6,286046988.8,N
1679128135.5,286046988.2,N
1679128155.3,286046984.5,N
1679128175.1,286046987.3,N
1679128195.9,286046986.2,N
1679128215.7,286046985.9,N
1679128235.5,286046985.0,N
1679128255.4,286046990.5,N
1679128275.2,286046990.1,N
1679128295.0,286046990.4,N
1679128296.0,286046990.4,N
1679128315.8,286046990.5,N
1679128335.6,286046988.3,N
1679128355.5,286046981.5,Y
1679128375.3,286046985.7,P
1679128395.1,286046985.8,P
1679128415.9,286046986.6,P
1679128435.7,286046982.2,Y
1679128455.6,286046995.3,P
1679128475.4,286046995.7,N
1679128495.2,286046994.7,N
1679128515.1,286046991.1,N
1679128516.0,286046991.1,N
1679128535.8,286046991.6,N
1679128555.6,286046985.4,Y
1679128575.5,286046991.7,P
1679128595.3,286046988.6,P
1679128615.2,286046987.5,P
1679128635.9,286046989.9,Y
1679128655.7,286046996.7,P
1679128675.6,286046995.7,N
1679128695.4,286046999.2,N
1679128715.2,286047003.6,N
1679128765.1,286046999.3,E
1679128775.0,286046999.0,N
1679128775.9,286046999.0,P
1679128795.8,286046995.1,P
1679128815.6,286046993.9,Y
1679128835.5,286046993.5,P
1679128855.3,286046996.0,N
1679128875.1,286046992.0,P
1679128895.9,286046994.3,N
1679128915.7,286046994.8,N
1679128935.5,286046992.4,Y
1679128955.4,286046999.2,P
1679128975.2,286046996.8,N
1679128995.1,286046997.2,N
1679128996.0,286046997.2,N
1679129015.8,286046999.5,N
1679129035.6,286046995.5,N
1679129055.5,286046993.8,Y
1679129075.3,286046996.5,P
1679129095.1,286046996.9,P
1679129115.9,286046995.1,P
1679129135.7,286046994.1,Y
1679129155.6,286046996.1,P
1679129175.4,286046996.8,P
1679129195.2,286046995.0,P
1679129215.1,286046993.3,Y
1679129216.0,286046993.3,P
1679129235.8,286046998.2,N
1679129255.7,286046996.7,N
1679129275.5,286046996.8,N
1679129295.3,286046998.8,N
1679129315.2,286046998.5,N
1679129335.0,286046998.9,N
1679129335.9,286046998.9,N
1679129355.7,286046999.0,N
1679129375.6,286046997.2,N
1679129395.4,286046996.0,N
1679129415.3,286046995.8,N
1679129435.1,286046995.8,N
1679129436.0,286046995.8,N
1679129455.8,286046995.8,N
1679129475.7,286046992.1,Y
1679129495.5,286046995.2,P
1679129515.3,286046994.2,P
1679129535.2,286046996.2,P
1679129555.0,286046993.8,Y
1679129555.9,286046993.8,P
1679129575.8,286046999.2,N
1679129595.6,286046996.9,N
1679129615.4,286047011.9,Y
1679129635.3,286047000.3,P
1679129655.1,286046996.8,N
1679129675.9,286046997.3,N
1679129695.7,286046997.8,N
1679129715.5,286046994.9,Y
1679129735.4,286047000.1,P
1679129755.2,286046998.9,N
1679129775.0,286046997.2,N
1679129776.0,286046997.2,N
1679129795.8,286046995.0,Y
1679129815.6,286046998.8,P
1679129835.5,286046998.4,P
1679129855.3,286047000.8,P
1679129875.1,286046996.6,Y
1679129895.9,286046999.2,P
1679129915.7,286046999.4,P
1679129935.6,286046996.1,P
1679129955.4,286046994.0,Y
1679129975.2,286046995.5,P
1679129995.1,286046996.4,N
1679129996.0,286046996.4,N
